| time (UTC) | temp F | wind direction | speed MPH | gust MPH | rain 1hr in | rain 24hr in | rain mn in | humidity % | barometer mb |
| 20260504033701 | 46 | 145 | 4.0 | 7.0 | 0.00 | 0.06 | 0.06 | 61 | |
| 20260504033200 | 46 | 180 | 5.0 | 4.0 | 0.00 | 0.06 | 0.06 | 61 | |
| 20260504032700 | 46 | 219 | 3.0 | 8.0 | 0.00 | 0.06 | 0.06 | 62 | |
| 20260504032159 | 46 | 274 | 3.0 | 6.0 | 0.00 | 0.06 | 0.06 | 62 | |
| 20260504031659 | 45 | 324 | 5.0 | 7.0 | 0.00 | 0.06 | 0.06 | 62 | |
| 20260504031158 | 45 | 234 | 5.0 | 9.0 | 0.00 | 0.06 | 0.06 | 62 | |
| 20260504030657 | 45 | 135 | 3.0 | 3.0 | 0.00 | 0.06 | 0.06 | 63 | |
| 20260504030156 | 45 | 249 | 3.0 | 5.0 | 0.00 | 0.06 | 0.06 | 62 | |
| 20260504025656 | 45 | 289 | 5.0 | 5.0 | 0.00 | 0.06 | 0.06 | 62 | |
| 20260504025155 | 45 | 261 | 3.0 | 5.0 | 0.00 | 0.06 | 0.06 | 62 | |
| 20260504024654 | 45 | 54 | 3.0 | 9.0 | 0.00 | 0.06 | 0.06 | 62 | |
| 20260504024154 | 45 | 240 | 4.0 | 4.0 | 0.00 | 0.06 | 0.06 | 61 | |
| 20260504023653 | 46 | 256 | 4.0 | 6.0 | 0.00 | 0.06 | 0.06 | 61 | |
| 20260504023152 | 45 | 275 | 3.0 | 6.0 | 0.00 | 0.06 | 0.06 | 61 | |
| 20260504022652 | 46 | 304 | 6.0 | 7.0 | 0.00 | 0.06 | 0.06 | 60 | |
| 20260504022151 | 45 | 250 | 3.0 | 5.0 | 0.00 | 0.06 | 0.06 | 61 | |
| 20260504021651 | 45 | 245 | 3.0 | 4.0 | 0.00 | 0.06 | 0.06 | 60 | |
| 20260504021150 | 46 | 288 | 8.0 | 7.0 | 0.00 | 0.06 | 0.06 | 59 | |
| 20260504020649 | 46 | 256 | 5.0 | 5.0 | 0.06 | 0.06 | 0.06 | 59 | |
| 20260504020148 | 46 | 337 | 3.0 | 5.0 | 0.06 | 0.06 | 0.06 | 59 | |
| 20260504015648 | 46 | 272 | 2.0 | 3.0 | 0.06 | 0.06 | 0.06 | 59 | |
| 20260504015147 | 46 | 332 | 3.0 | 3.0 | 0.06 | 0.06 | 0.06 | 59 | |
| 20260504014646 | 46 | 229 | 5.0 | 7.0 | 0.06 | 0.06 | 0.06 | 59 | |
| 20260504014146 | 46 | 237 | 3.0 | 5.0 | 0.06 | 0.06 | 0.06 | 58 | |
| 20260504013645 | 46 | 314 | 3.0 | 2.0 | 0.06 | 0.06 | 0.06 | 59 | |
| 20260504013144 | 46 | 314 | 3.0 | 2.0 | 0.06 | 0.06 | 0.06 | 59 | |
| 20260504012644 | 46 | 314 | 3.0 | 2.0 | 0.06 | 0.06 | 0.06 | 59 | |
| 20260504012143 | 46 | 259 | 2.0 | 2.0 | 0.06 | 0.06 | 0.06 | 59 | |
| 20260504011642 | 46 | 258 | 3.0 | 4.0 | 0.06 | 0.06 | 0.06 | 58 | |
| 20260504011142 | 46 | 97 | 1.0 | 3.0 | 0.06 | 0.06 | 0.06 | 58 | |
| 20260504010641 | 41 | 257 | 3.0 | 7.0 | 0.00 | 0.00 | 0.00 | 86 | |
| 20260504010140 | 41 | 257 | 3.0 | 7.0 | 0.00 | 0.00 | 0.00 | 86 | |
| 20260504005639 | 41 | 257 | 3.0 | 7.0 | 0.00 | 0.00 | 0.00 | 86 | |
| 20260504005138 | 41 | 257 | 3.0 | 7.0 | 0.00 | 0.00 | 0.00 | 86 | |
| 20260504004638 | 41 | 257 | 3.0 | 7.0 | 0.00 | 0.00 | 0.00 | 86 | |
| 20260504004137 | 41 | 257 | 3.0 | 7.0 | 0.00 | 0.00 | 0.00 | 86 | |
| 20260504003636 | 41 | 257 | 3.0 | 7.0 | 0.00 | 0.00 | 0.00 | 86 | |
| 20260504003136 | 41 | 257 | 3.0 | 7.0 | 0.00 | 0.00 | 0.00 | 86 | |
| 20260504002635 | 41 | 257 | 3.0 | 7.0 | 0.00 | 0.00 | 0.00 | 86 | |
| 20260504002134 | 41 | 257 | 3.0 | 7.0 | 0.00 | 0.00 | 0.00 | 86 | |
| 20260504001634 | 41 | 257 | 3.0 | 7.0 | 0.00 | 0.00 | 0.00 | 86 | |
| 20260504001133 | 41 | 257 | 3.0 | 7.0 | 0.00 | 0.00 | 0.00 | 86 | |
| 20260504000632 | 41 | 257 | 3.0 | 7.0 | 0.00 | 0.00 | 0.00 | 86 | |
| 20260504000132 | 41 | 257 | 3.0 | 7.0 | 0.00 | 0.00 | 0.00 | 86 | |
| 20260503235631 | 41 | 257 | 3.0 | 7.0 | 0.00 | 0.00 | 0.00 | 86 | |
| 20260503235130 | 41 | 257 | 3.0 | 7.0 | 0.00 | 0.00 | 0.00 | 86 | |
| 20260503234629 | 41 | 257 | 3.0 | 7.0 | 0.00 | 0.00 | 0.00 | 86 | |
| 20260503234128 | 41 | 257 | 3.0 | 7.0 | 0.00 | 0.00 | 0.00 | 86 | |
| 20260503233628 | 41 | 257 | 3.0 | 7.0 | 0.00 | 0.00 | 0.00 | 86 | |
| 20260503233127 | 41 | 257 | 3.0 | 7.0 | 0.00 | 0.00 | 0.00 | 86 | |
| 20260503232626 | 41 | 257 | 3.0 | 7.0 | 0.00 | 0.00 | 0.00 | 86 | |
| 20260503232126 | 41 | 257 | 3.0 | 7.0 | 0.00 | 0.00 | 0.00 | 86 | |
| 20260503231625 | 41 | 257 | 3.0 | 7.0 | 0.00 | 0.00 | 0.00 | 86 | |
| 20260503231124 | 41 | 257 | 3.0 | 7.0 | 0.00 | 0.00 | 0.00 | 86 | |
| 20260503230623 | 41 | 257 | 3.0 | 7.0 | 0.00 | 0.00 | 0.00 | 86 | |
| 20260503230122 | 41 | 257 | 3.0 | 7.0 | 0.00 | 0.00 | 0.00 | 86 | |
| 20260503225622 | 41 | 257 | 3.0 | 7.0 | 0.00 | 0.00 | 0.00 | 86 | |
| 20260503225121 | 41 | 257 | 3.0 | 7.0 | 0.00 | 0.00 | 0.00 | 86 | |
| 20260503224620 | 41 | 257 | 3.0 | 7.0 | 0.00 | 0.00 | 0.00 | 86 | |
| 20260503224114 | 41 | 257 | 3.0 | 7.0 | 0.00 | 0.00 | 0.00 | 86 | |
| 20260503223614 | 41 | 257 | 3.0 | 7.0 | 0.00 | 0.00 | 0.00 | 86 | |
| 20260503223113 | 41 | 257 | 3.0 | 7.0 | 0.00 | 0.00 | 0.00 | 86 | |
| 20260503222612 | 41 | 257 | 3.0 | 7.0 | 0.00 | 0.00 | 0.00 | 86 | |
| 20260503222112 | 41 | 257 | 3.0 | 7.0 | 0.00 | 0.00 | 0.00 | 86 | |
| 20260503221611 | 41 | 257 | 3.0 | 7.0 | 0.00 | 0.00 | 0.00 | 86 | |
| 20260503221110 | 41 | 257 | 3.0 | 7.0 | 0.00 | 0.00 | 0.00 | 86 | |
| 20260503220609 | 41 | 257 | 3.0 | 7.0 | 0.00 | 0.00 | 0.00 | 86 | |
| 20260503220109 | 41 | 257 | 3.0 | 7.0 | 0.00 | 0.00 | 0.00 | 86 | |
| 20260503215608 | 41 | 257 | 3.0 | 7.0 | 0.00 | 0.00 | 0.00 | 86 | |
| 20260503215107 | 41 | 257 | 3.0 | 7.0 | 0.00 | 0.00 | 0.00 | 86 | |
| 20260503214606 | 41 | 257 | 3.0 | 7.0 | 0.00 | 0.00 | 0.00 | 86 | |
| 20260503214106 | 41 | 257 | 3.0 | 7.0 | 0.00 | 0.00 | 0.00 | 86 | |
| 20260503213605 | 41 | 257 | 3.0 | 7.0 | 0.00 | 0.00 | 0.00 | 86 | |
| 20260503213104 | 41 | 257 | 3.0 | 7.0 | 0.00 | 0.00 | 0.00 | 86 | |
| 20260503212604 | 41 | 257 | 3.0 | 7.0 | 0.00 | 0.00 | 0.00 | 86 | |
| 20260503212102 | 41 | 257 | 3.0 | 7.0 | 0.00 | 0.00 | 0.00 | 86 | |
| 20260503211602 | 41 | 257 | 3.0 | 7.0 | 0.00 | 0.00 | 0.00 | 86 | |
| 20260503211101 | 41 | 257 | 3.0 | 7.0 | 0.00 | 0.00 | 0.00 | 86 | |
| 20260503210600 | 41 | 257 | 3.0 | 7.0 | 0.00 | 0.00 | 0.00 | 86 | |
| 20260503210059 | 41 | 257 | 3.0 | 7.0 | 0.00 | 0.00 | 0.00 | 86 | |
| 20260503205559 | 41 | 257 | 3.0 | 7.0 | 0.00 | 0.00 | 0.00 | 86 | |
| 20260503205058 | 41 | 257 | 3.0 | 7.0 | 0.00 | 0.00 | 0.00 | 86 | |
| 20260503204557 | 41 | 257 | 3.0 | 7.0 | 0.00 | 0.00 | 0.00 | 86 | |
| 20260503204057 | 41 | 257 | 3.0 | 7.0 | 0.00 | 0.00 | 0.00 | 86 | |
| 20260503203556 | 41 | 257 | 3.0 | 7.0 | 0.00 | 0.00 | 0.00 | 86 | |
| 20260503203055 | 41 | 257 | 3.0 | 7.0 | 0.00 | 0.00 | 0.00 | 86 | |
| 20260503202554 | 41 | 257 | 3.0 | 7.0 | 0.00 | 0.00 | 0.00 | 86 | |
| 20260503202054 | 41 | 257 | 3.0 | 7.0 | 0.00 | 0.00 | 0.00 | 86 | |
| 20260503201553 | 41 | 257 | 3.0 | 7.0 | 0.00 | 0.00 | 0.00 | 86 | |
| 20260503201052 | 41 | 257 | 3.0 | 7.0 | 0.00 | 0.00 | 0.00 | 86 | |
| 20260503200552 | 41 | 257 | 3.0 | 7.0 | 0.00 | 0.00 | 0.00 | 86 | |
| 20260503200051 | 41 | 257 | 3.0 | 7.0 | 0.00 | 0.00 | 0.00 | 86 | |
| 20260503195550 | 41 | 257 | 3.0 | 7.0 | 0.00 | 0.00 | 0.00 | 86 | |
| 20260503195050 | 41 | 257 | 3.0 | 7.0 | 0.00 | 0.00 | 0.00 | 86 | |
| 20260503194549 | 41 | 257 | 3.0 | 7.0 | 0.00 | 0.00 | 0.00 | 86 | |
| 20260503194048 | 41 | 257 | 3.0 | 7.0 | 0.00 | 0.00 | 0.00 | 86 | |
| 20260503193547 | 41 | 257 | 3.0 | 7.0 | 0.00 | 0.00 | 0.00 | 86 | |
| 20260503193047 | 41 | 257 | 3.0 | 7.0 | 0.00 | 0.00 | 0.00 | 86 | |
| 20260503192546 | 41 | 257 | 3.0 | 7.0 | 0.00 | 0.00 | 0.00 | 86 | |
| 20260503192045 | 41 | 257 | 3.0 | 7.0 | 0.00 | 0.00 | 0.00 | 86 | |
| 20260503191545 | 41 | 257 | 3.0 | 7.0 | 0.00 | 0.00 | 0.00 | 86 | |
| 20260503191044 | 41 | 257 | 3.0 | 7.0 | 0.00 | 0.00 | 0.00 | 86 | |
| 20260503190544 | 41 | 257 | 3.0 | 7.0 | 0.00 | 0.00 | 0.00 | 86 | |
| 20260503190043 | 41 | 257 | 3.0 | 7.0 | 0.00 | 0.00 | 0.00 | 86 | |
| 20260503185542 | 41 | 257 | 3.0 | 7.0 | 0.00 | 0.00 | 0.00 | 86 | |
| 20260503185041 | 41 | 257 | 3.0 | 7.0 | 0.00 | 0.00 | 0.00 | 86 | |
| 20260503184540 | 41 | 257 | 3.0 | 7.0 | 0.00 | 0.00 | 0.00 | 86 | |
| 20260503184040 | 41 | 257 | 3.0 | 7.0 | 0.00 | 0.00 | 0.00 | 86 | |
| 20260503183539 | 41 | 257 | 3.0 | 7.0 | 0.00 | 0.00 | 0.00 | 86 | |
| 20260503183038 | 41 | 257 | 3.0 | 7.0 | 0.00 | 0.00 | 0.00 | 86 | |
| 20260503182536 | 41 | 257 | 3.0 | 7.0 | 0.00 | 0.00 | 0.00 | 86 | |
| 20260503182036 | 41 | 257 | 3.0 | 7.0 | 0.00 | 0.00 | 0.00 | 86 | |
| 20260503181535 | 41 | 257 | 3.0 | 7.0 | 0.00 | 0.00 | 0.00 | 86 | |
| 20260503181034 | 41 | 257 | 3.0 | 7.0 | 0.00 | 0.00 | 0.00 | 86 | |
| 20260503180533 | 41 | 257 | 3.0 | 7.0 | 0.00 | 0.00 | 0.00 | 86 | |
| 20260503180033 | 41 | 257 | 3.0 | 7.0 | 0.00 | 0.00 | 0.00 | 86 | |
| 20260503175532 | 41 | 257 | 3.0 | 7.0 | 0.00 | 0.00 | 0.00 | 86 | |
| 20260503175032 | 41 | 257 | 3.0 | 7.0 | 0.00 | 0.00 | 0.00 | 86 | |
| 20260503174531 | 41 | 257 | 3.0 | 7.0 | 0.00 | 0.00 | 0.00 | 86 | |
| 20260503174030 | 41 | 257 | 3.0 | 7.0 | 0.00 | 0.00 | 0.00 | 86 | |
| 20260503173529 | 41 | 257 | 3.0 | 7.0 | 0.00 | 0.00 | 0.00 | 86 | |
| 20260503173029 | 41 | 257 | 3.0 | 7.0 | 0.00 | 0.00 | 0.00 | 86 | |
| 20260503172528 | 41 | 257 | 3.0 | 7.0 | 0.00 | 0.00 | 0.00 | 86 | |
| 20260503172027 | 41 | 257 | 3.0 | 7.0 | 0.00 | 0.00 | 0.00 | 86 | |
| 20260503171527 | 41 | 257 | 3.0 | 7.0 | 0.00 | 0.00 | 0.00 | 86 | |
| 20260503171026 | 41 | 257 | 3.0 | 7.0 | 0.00 | 0.00 | 0.00 | 86 | |
| 20260503170525 | 41 | 257 | 3.0 | 7.0 | 0.00 | 0.00 | 0.00 | 86 | |
| 20260503151004 | 41 | 257 | 3.0 | 7.0 | 0.00 | 0.00 | 0.00 | 86 | |
| 20260503150503 | 41 | 257 | 3.0 | 7.0 | 0.00 | 0.00 | 0.00 | 86 | |
| 20260503130942 | 41 | 257 | 3.0 | 7.0 | 0.00 | 0.00 | 0.00 | 86 | |
| 20260503130441 | 41 | 257 | 3.0 | 7.0 | 0.00 | 0.00 | 0.00 | 86 | |
| 20260503110418 | 41 | 257 | 3.0 | 7.0 | 0.00 | 0.00 | 0.00 | 86 | |
| 20260503090353 | 41 | 257 | 3.0 | 7.0 | 0.00 | 0.00 | 0.00 | 86 | |
| 20260503081346 | 41 | 257 | 3.0 | 7.0 | 0.00 | 0.00 | 0.00 | 86 | |
| 20260503080845 | 41 | 257 | 3.0 | 7.0 | 0.00 | 0.00 | 0.00 | 86 | |
| 20260503080344 | 41 | 257 | 3.0 | 7.0 | 0.00 | 0.00 | 0.00 | 86 | |
| 20260503072840 | 41 | 257 | 3.0 | 7.0 | 0.00 | 0.00 | 0.00 | 86 | |
| 20260503072339 | 41 | 257 | 3.0 | 7.0 | 0.00 | 0.00 | 0.00 | 86 | |
| 20260503071838 | 41 | 257 | 3.0 | 7.0 | 0.00 | 0.00 | 0.00 | 86 | |
| 20260503071337 | 41 | 257 | 3.0 | 7.0 | 0.00 | 0.00 | 0.00 | 86 | |
| 20260503070837 | 41 | 257 | 3.0 | 7.0 | 0.00 | 0.00 | 0.00 | 86 | |
| 20260503070336 | 41 | 257 | 3.0 | 7.0 | 0.00 | 0.00 | 0.00 | 86 | |
| 20260503060327 | 41 | 257 | 3.0 | 7.0 | 0.00 | 0.00 | 0.00 | 86 | |
| 20260503054825 | 41 | 257 | 3.0 | 7.0 | 0.00 | 0.00 | 0.00 | 86 | |
| 20260503054325 | 41 | 257 | 3.0 | 7.0 | 0.00 | 0.00 | 0.00 | 86 | |
| 20260503053824 | 41 | 257 | 3.0 | 7.0 | 0.00 | 0.00 | 0.00 | 86 | |
| 20260503053323 | 41 | 257 | 3.0 | 7.0 | 0.00 | 0.00 | 0.00 | 86 | |
| 20260503052822 | 41 | 257 | 3.0 | 7.0 | 0.00 | 0.00 | 0.00 | 86 | |
| 20260503052322 | 41 | 257 | 3.0 | 7.0 | 0.00 | 0.00 | 0.00 | 86 | |
| 20260503051821 | 41 | 257 | 3.0 | 7.0 | 0.00 | 0.00 | 0.00 | 86 | |
| 20260503051320 | 41 | 257 | 3.0 | 7.0 | 0.00 | 0.00 | 0.00 | 86 | |
| 20260503050820 | 41 | 257 | 3.0 | 7.0 | 0.00 | 0.00 | 0.00 | 86 | |
| 20260503050319 | 41 | 257 | 3.0 | 7.0 | 0.00 | 0.00 | 0.00 | 86 | |
| 20260503045818 | 41 | 257 | 3.0 | 7.0 | 0.00 | 0.00 | 0.00 | 86 | |
| 20260503045318 | 41 | 257 | 3.0 | 7.0 | 0.00 | 0.00 | 0.00 | 86 | |
| 20260503044817 | 41 | 257 | 3.0 | 7.0 | 0.00 | 0.00 | 0.00 | 86 | |
| 20260503044316 | 41 | 257 | 3.0 | 7.0 | 0.00 | 0.00 | 0.00 | 86 | |
| 20260503043815 | 41 | 257 | 3.0 | 7.0 | 0.00 | 0.00 | 0.00 | 86 | |
| 20260503043315 | 41 | 257 | 3.0 | 7.0 | 0.00 | 0.00 | 0.00 | 86 | |
| 20260503042814 | 41 | 257 | 3.0 | 7.0 | 0.00 | 0.00 | 0.00 | 86 | |
| 20260503042313 | 41 | 257 | 3.0 | 7.0 | 0.00 | 0.00 | 0.00 | 86 | |
| 20260503041813 | 41 | 257 | 3.0 | 7.0 | 0.00 | 0.00 | 0.00 | 86 | |
| 20260503041312 | 41 | 257 | 3.0 | 7.0 | 0.00 | 0.00 | 0.00 | 86 | |
| 20260503040811 | 41 | 257 | 3.0 | 7.0 | 0.00 | 0.00 | 0.00 | 86 | |
| 20260503040311 | 41 | 257 | 3.0 | 7.0 | 0.00 | 0.00 | 0.00 | 86 | |
| 20260503035810 | 41 | 257 | 3.0 | 7.0 | 0.00 | 0.00 | 0.00 | 86 | |
| 20260503035309 | 41 | 257 | 3.0 | 7.0 | 0.00 | 0.00 | 0.00 | 86 | |
| 20260503034808 | 41 | 257 | 3.0 | 7.0 | 0.00 | 0.00 | 0.00 | 86 | |
| 20260503034308 | 41 | 257 | 3.0 | 7.0 | 0.00 | 0.00 | 0.00 | 86 |